Flag Weather past 2 weeks in Bern, Bern, Switzerland

Now
37 °F

Fog.


Feels Like: 37 °F
Forecast: 38 / 64 °F
Wind: 2 mph from Southeast

Location: Bern / Belp

Current Time: Oct 31, 2014 at 5:27:01 AM

Latest Report: Oct 31, 2014 at 4:50 AM


Visibility: 1 mi

Pressure: 30.30 "Hg

Humidity: 93%

Dew point: 36 °F

Location of BernLocation

Historic Weather in Bern — Graph

°F

Bern temperature yesterday

Maximum temperature yesterday: 64 °F (at 1:50 PM)
Minimum temperature yesterday: 41 °F (at 12:20 AM)
Average temperature yesterday: 49 °F

Past Weeks' High & Low Weather Summary

 TemperatureHumidityPressure
High73 °F (Oct 19, 3:20 PM)100% (Oct 16, 5:20 AM)30.30 "Hg (Oct 16, 5:20 AM)
Low30 °F (Oct 24, 7:20 AM)49% (Oct 30, 2:50 PM)29.83 "Hg (Oct 17, 2:50 AM)
Average51 °F86%30.15 "Hg
* Reported Oct 16 5:20 AM — Oct 31 4:20 AM, Bern, Weather by CustomWeather, © 2014

Note: Actual official high and low records may vary slightly from our data, if they occured in-between our weather recording intervals... More about our weather records

Advertising

Bern weather history for previous 24 hours

 ConditionsComfort  
Time TempWeatherWind HumidityBarometerVisibility
4:20 AM
Oct 31
36 °FFog.1 mph100%30.30 "Hg2 mi
3:50 AM36 °FClear.2 mph100%30.30 "Hg10 mi
3:20 AM39 °FFog.1 mph100%30.30 "Hg2 mi
2:50 AM37 °FFog.1 mph100%30.30 "Hg1 mi
2:20 AM37 °FChilly.2 mph100%30.30 "HgN/A
1:50 AM39 °FChilly.1 mph100%30.30 "Hg3 mi
1:20 AM37 °FFog.2 mph100%30.30 "Hg2 mi
12:50 AM39 °FFog.2 mph100%30.30 "Hg2 mi
12:20 AM41 °FQuite cool.2 mph100%30.30 "Hg4 mi
11:50 PM
Oct 30
41 °FFog.1 mph93%30.30 "Hg2 mi
11:20 PM41 °FQuite cool.1 mph100%30.30 "Hg5 mi
10:50 PM41 °FQuite cool.1 mph93%30.30 "Hg3 mi
10:20 PM43 °FClear.2 mph100%30.30 "Hg10 mi
9:50 PM43 °FClear.1 mph93%30.30 "Hg4 mi
9:20 PM43 °FClear.1 mph100%30.30 "Hg5 mi
8:50 PM43 °FClear.2 mph100%30.27 "Hg6 mi
8:20 PM45 °FClear.1 mph93%30.27 "Hg5 mi
7:50 PM46 °FClear.3 mph93%30.27 "Hg10 mi
7:20 PM46 °FCool.2 mph93%30.27 "Hg6 mi
6:50 PM48 °FClear.1 mph87%30.27 "Hg10 mi
6:20 PM50 °FClear.2 mph88%30.27 "Hg10 mi
5:50 PM52 °FClear.1 mph88%30.24 "Hg10 mi
5:20 PM54 °FClear.2 mph82%30.24 "Hg10 mi
4:50 PM57 °FSunny.2 mph72%30.24 "Hg10 mi
4:20 PM59 °FPassing clouds.5 mph68%30.24 "HgN/A
3:50 PM61 °FSunny.8 mph68%30.24 "Hg10 mi
3:20 PM63 °FSunny.6 mph56%30.21 "Hg10 mi
2:50 PM64 °FSunny.3 mph49%30.21 "Hg10 mi
2:20 PM64 °FSunny.2 mph56%30.24 "Hg10 mi
1:50 PM64 °FSunny.2 mph52%30.24 "Hg10 mi
1:20 PM63 °FPassing clouds.3 mph52%30.24 "HgN/A
12:50 PM61 °FScattered clouds.2 mph59%30.24 "HgN/A
12:20 PM59 °FScattered clouds.2 mph59%30.24 "HgN/A
11:50 AM57 °FScattered clouds.2 mph63%30.27 "HgN/A
11:20 AM55 °FPassing clouds.2 mph67%30.27 "HgN/A
10:50 AM55 °FPassing clouds.3 mph67%30.27 "HgN/A
10:20 AM50 °FScattered clouds.No wind82%30.27 "HgN/A
9:50 AM48 °FScattered clouds.No wind87%30.27 "HgN/A
9:20 AM46 °FPartly sunny.No wind93%30.24 "HgN/A
8:50 AM48 °FPartly sunny.1 mph87%30.24 "HgN/A
8:20 AM46 °FPartly sunny.2 mph93%30.24 "HgN/A
7:50 AM45 °FPartly sunny.3 mph100%30.24 "HgN/A
7:20 AM45 °FPartly sunny.3 mph93%30.21 "HgN/A
6:50 AM46 °FPassing clouds.2 mph87%30.21 "HgN/A
6:20 AM45 °FPassing clouds.2 mph93%30.21 "HgN/A
5:50 AM46 °FPassing clouds.2 mph87%30.21 "HgN/A
5:20 AM45 °FPartly cloudy.2 mph100%30.21 "HgN/A
Weather by CustomWeather, © 2014

See weather overviewHow to use our weather pages